Overview Statistics Trail Chart Weather Telemetry Raw packets
 

This is the latest recevied weather packets stored in our database for station/object LU3HGB-WX. If no packets are shown the sender has not sent any weather packets the latest 10 day(s).

<< 31 32 33 34 35 36 37 >>
Time Temp. Humidity Pressure Rain* Wind** Luminosity Snow
1788467860 18.89° C 27% 1016 hPa 0 mm - 263 W/m² -
1788467559 18.89° C 26% 1016 hPa 0 mm - 287 W/m² -
1788467260 19.44° C 26% 1016 hPa 0 mm - 302 W/m² -
1788466960 19.44° C 26% 1016 hPa 0 mm - 230 W/m² -
1788466660 19.44° C 26% 1016 hPa 0 mm - 345 W/m² -
1788466359 19.44° C 26% 1016 hPa 0 mm - 364 W/m² -
1788466060 19.44° C 26% 1016 hPa 0 mm - 386 W/m² -
1788465759 19.44° C 26% 1016 hPa 0 mm - 408 W/m² -
1788465159 19.44° C 26% 1016 hPa 0 mm - 447 W/m² -
1788464859 19.44° C 26% 1016 hPa 0 mm - 464 W/m² -
1788464560 19.44° C 26% 1015 hPa 0 mm - 486 W/m² -
1788464260 20° C 27% 1016 hPa 0 mm - 505 W/m² -
1788463989 20° C 27% 1016 hPa 0 mm - 529 W/m² -
1788463663 20° C 27% 1015 hPa 0 mm - 541 W/m² -
1788463359 20.56° C 27% 1015 hPa 0 mm - 561 W/m² -
1788463059 20° C 28% 1015 hPa 0 mm - 579 W/m² -
1788462760 20° C 26% 1015 hPa 0 mm - 600 W/m² -
1788462476 20° C 27% 1015 hPa 0 mm - 617 W/m² -
1788462159 20° C 27% 1016 hPa 0 mm - 640 W/m² -
1788461860 20° C 27% 1015 hPa 0 mm - 649 W/m² -
1788461560 20° C 30% 1015 hPa 0 mm - 665 W/m² -
1788461260 20° C 31% 1015 hPa 0 mm - 684 W/m² -
1788460960 20.56° C 30% 1015 hPa 0 mm - 698 W/m² -
1788460660 20.56° C 32% 1015 hPa 0 mm - 715 W/m² -
1788460361 20.56° C 31% 1016 hPa 0 mm - 733 W/m² -

* Rain latest hour (hover to see other rain measurements)
** Current wind speed in m/s (hover to see current wind gust speed)